Timeline UpdatesTrip UpdatesNews PostsPvt Posts♥♥Travel TipsAdmin PostsConv PostsFollowed PostsChat RequestsBlog PostsPNR Posts

Disclaimer
Search
 
 
Sat Nov 1, 2014 18:55:45 ISTHomeTrainsΣChainsAtlasPNRForumGalleryNewsFAQTripsMembersLoginFeedback
No Recent News for this Train
Other Trains in the News **new
Latest...
Running with BE2 (duration not known).....#1212742
Fri Sep 12, 2014 (09:51AM)
⇐ Return Journey: Train# 12288

12287/Kochuveli - Dehradun SF Express

Time-Table HAS CHANGED.
Sep 28 2014 (12:13PM)
Change Departure Station:
Change Arrival Station:
Post a Train Travel TipPost a Train Travel Tip **new
Post a Comment/Question/Picture/VideoPost a Comment/Question/Picture/Video
Pantry/Catering
✕ NO Pantry Car
✓ Catering Avbl
RSA - Rake Sharing
Rake/Coach Composition
SLR-GS-GS-GS-S5-S4-S3-S2-S1-B1-GS-GS-SLR-*B2-*B3-*GS-*GS-*SLR;; * represents coaches that are detached at Haridwar; Entry# 1172138
Loco
RTM WDM3A(KCVL-BRC) BRC WAP 4E (BRC-NZM) TKD WDM 3A (NZM-DDN)
News    PNR    Forum    Time-Table    Availability    Fare Chart    Map    Arr/Dep History    Trips    Gallery    ΣChains    X/O    Timeline    
Travel Time: 49h 25m    12 halts    Distance: 2531 km    Avg Speed: 51 km/hr
Type: SuperFast
Zone: SR/Southern
Departs @ 20:40 (Avg 24m late)
Platform# 1
     F 
Mangalore Junction/MAJN 
Arrives @ 22:05 +2 nights (Avg 21m late)
Platform# 1
S      
Dehradun/DDN 

12 halts. 338 intermediate Stations between Mangalore Junction and Dehradun

Hide intermediate Stations  Show Old Time-Table

#TrkCodeStation NameX/OArrivesAvgDepartsAvgHaltPFDay#KmSpeedElevZoneAddress
1/==/KCVLTrivandrum Kochuveli (3)  -08:50+011-628.26911mSRTrivandrum 695021, Kerala
1.1/==/VELITrivandrum Veli (1)X  08:53-08:53-  1-625.0 699mSRTrivandrum, Kerala
1.2/==/KZKKazhakkuttam (3)X  08:55-08:55-  1-621.9 6920mSRKulathoor ► Kazhakootam Road Kazhakootam PO Thiruvananthapuram, Kerala
1.3/==/KXPKaniyapuram (2)  08:59-08:59-  1-617.9 6914mSRTrivandrum, Kerala
1.4/==/MQUMurukkampuzha (2)  09:02-09:02-  1-613.9 6918mSRMurukkumpuzha, Kerala
1.5/==/PGZPerunguzhi (2)X  09:05-09:05-  1-610.6 6918mSRPerunguzhi Railway Station, Kerala
1.6/==/CRYChirayinkeezhu (2)  09:09-09:09-  1-606.5 6919mSRChirayinkeezhu, Kerala
1.7/==/KVUKadakavur (3)  09:12-09:12-  1-603.4 6920mSRKadakkavoor, Kerala
1.8/==/AMYAkathumuri (2)X  09:14-09:14-  1-600.8 6913mSRAkathumuri Rd, Kerala
1.9/==/VAKVarkala Sivagiri (3)  09:19-09:19-  1-594.3 6952mSREdava Kappil Road, Kerala
1.10/==/EVAEdavai (2)  09:23-09:23-  1-590.4 6928mSRThiruvananthapuram, Kerala
1.11/==/KFIKappil (2)  09:25-09:25-  1-587.6 6920mSRKappil, Kerala
1.12/==/PVUParavur (3)  09:29-09:29-  1-583.0 6918mSRParavoor, Kerala
1.13/==/MYYMayyanad (2)  09:32-09:32-  1-579.5 6921mSRMayyanad, Kerala
1.14/==/IRPEravipuram (2)  09:36-09:36-  1-575.2 6920mSRKollam, Kerala
2/==/QLNKollam Junction (6)X  09:40+1309:45+125m21-570.66716mSRKollam 0474-2746194, Kerala
2.1/==/PRNDPerinad (2)  09:53-09:53-  1-561.5 6724mSRPerinad Kollam Dist, Kerala
2.2/==/MQOMunroturuttu (2)  10:00-10:00-  1-554.1 670mSRSasthamkotta, Kerala
2.3/==/STKTSasthamkotta (2)  10:03-10:03-  1-551.2 670mSRKollam Dist, Kerala
2.4/==/KPYKarunagappalli (2)X  10:09-10:09-  1-543.5 6712mSRKollam Dist, Kerala
2.5/==/OCROchira (2)  10:16-10:16-  1-535.8 6714mSRClappana, Kerala
2.6/==/KYJKayamkulam Junction (5)X  10:22-10:22-  1-529.8 6711mSRAlappuzha Ph;0479-2442042, Kerala
2.7/==/MVLKMavelikara (3)X  10:29-10:29-  1-522.1 6713mSRMavelikkara Ph: 0479-2302249, Kerala
2.8/==/CYNCheriyanad (2)  10:34-10:34-  1-515.9 6721mSRCherianad, Kerala
3/==%CNGRChengannur (3)  10:40+1510:42+202m31-509.6436mSRPh: 0479-2452340, Kerala
3.1%==%TRVLTiruvalla (2)10:55-10:55-  1-500.5 4327mSRPh: 0469-2601314, Kerala
3.2%==%CGYChanganassery (3)X  11:05-11:05-  1-492.7 4311mSRPh: 0481- 2420108, Kerala
3.3%==%CGVChingavanam (2)X  11:20-11:20-  1-482.2 4323mSRChingavanam, Kerala
4%==%KTYMKottayam (3)  11:30+3811:33+413m--1-474.84715mSRTel: 0481 2563535, Kerala
4.1%==%KFQKumaranallur (1)X  11:37-11:37-  1-471.4 4711mSRKottayam, Kerala
4.2%==%ETMEttumanur (1)  11:47-11:47-  1-464.3 4728mSRKottayam, Kerala
4.3%==%KRPPKuruppanthara (1)  11:57-11:57-  1-456.4 4719mSRKottayam, Kerala
4.4%==%KDTYKaduturutti Halt (1)  12:01-12:01-  1-453.3 4724mSRKaduthuruthi, Kerala
4.5%==%VARDVaikom Road (1)X  12:05-12:05-  1-449.8 473mSRKaduthuruthi, Kerala
4.6%==%PVRDPiravom Road  12:13-12:13-  1-443.6 4712mSRKottayam, Kerala
4.7%==%KPTMKanjiramittam (1)  12:21-12:21-  1-437.2 4711mSRKanjiramattom, Kerala
4.8%==/MNTTMulanturutti (2)  12:28-12:28-  1-431.9 4717mSRErnakualm-682314, Kerala
4.9/==/KFEChottanikkara Road (1)  12:32-12:32-  1-428.5 4711mSRErnakulam, Kerala
4.10/==/TRTRThrippunithura (2)X  12:38-12:38-  1-424.5 475mSRErnakulam, Kerala
4.11/==/ERSDErnakulam D Cabin  12:46-12:46-  1-417.8 474mSRErnakulam, Kerala
5/==/ERNErnakulam Town (North) (2)X  12:50+3112:55+325m11-414.9649mSRTel: 0484 2395198, Kerala
5.1/==/IPLIdappally (2)  13:01-13:01-  1-408.8 649mSR0484- 2344202, Kerala
5.2/==/KLMRKalamassery (2)X  13:05-13:05-  1-404.1 649mSRErnakulam, Kerala
5.3/==/AWYAluva (3)  13:11-13:11-  1-398.0 6412mSRPh: 0484-2624141, Kerala
5.4/==/CWRChovvara (2)  13:14-13:14-  1-394.8 6412mSRAluva, Kerala
5.5/==/AFKAngamaly for Kalady (3)  13:19-13:19-  1-388.8 6416mSRPhone: 0484-2452340, Kerala
5.6/==/KUCKarukkutty (2)  13:24-13:24-  1-384.1 6421mSRErnakulam District, Kerala
5.7/==/KRANKoratti Angadi (2)X  13:28-13:28-  1-379.5 6414mSRKoratty, Kerala
5.8/==/DINRDivine Nagar (2)  13:32-13:32-  1-375.8 6416mSRThrissur, Kerala
5.9/==/CKIChalakkudy (3)  13:34-13:34-  1-373.6 649mSRPh: 0480- 2701368, Kerala
5.10/==/IJKIrinjalakkuda (2)  13:40-13:40-  1-367.2 6418mSRKalletumkara, Kerala
5.11/==/NYINellayi (2)  13:46-13:46-  1-360.8 6413mSRAnandapuram Nellayi Rd, Kerala
5.12/==/PUKPudukkad (2)X  13:49-13:49-  1-357.0 6411mSRPudukad, Kerala
5.13/==/OLROllur (2)X  13:56-13:56-  1-350.0 6413mSRThrissur, Kerala
6/==/TCRThrissur (4)  14:02+3614:05+363m21-343.4336mSRThrissur Tel: 0487 2423150, Kerala
6.1/==/PNQThrissur Punkunnam (2)  14:09-14:09-  1-341.2 3312mSRThrissur, Kerala
6.2/==/MGKMulangunnathukavu (3)X  14:22-14:22-  1-334.1 3327mSRThrissur 0487 2200229, Kerala
6.3/==/WKIWadakkanchery (2)X  14:35-14:35-  1-327.0 3340mSRWadackanchery, Kerala
6.4/==/MUCMullurkara (2)  14:51-14:51-  1-318.4 3347mSRChittanda - Thalasseri Rd, Kerala
6.5/==/VTKVallathol Nagar (3)  14:58-14:58-  1-314.4 3345mSRThrissur Dist, Kerala
6.6/==/BPZABharathapuzha Halt  15:03-15:03-  1-311.4 3322mSRShoranur, Kerala
7/==/SRRShoranur Junction (7)X  15:05+2215:10+225m--1-310.55826mSRShoranur ph.no 0466-2222913, Kerala
7.1%==%SRRBShoranur B-CabinX  15:10-15:10-  1-310.1 5828mSRShoranur, Kerala
7.2%==%KRKDKarakad (2)X  15:16-15:16-  1-304.8 5831mSRKondayur Rd, Kerala
7.3%==%PTBPattambi (2)  15:22-15:22-  1-298.9 5821mSRPattambi, Kerala
7.4%==%KODNKodumunda  15:27-15:27-  1-294.2 5819mSRThrithala, Kerala
7.5%==%PUMPallippuram  15:32-15:32-  1-289.8 585mSRPalakkad, Kerala
7.6%==%PEUPerssannur  15:37-15:37-  1-284.5 5816mSRKoodallur, Kerala
7.7%==%KTUKuttippuram (2)  15:41-15:41-  1-280.5 5817mSRKuttippuram, Kerala
7.8%==%TUATirunnavaya (2)  15:48-15:48-  1-274.0 5810mSRThirunavaya, Kerala
7.9%==%TIRTirur (3)X  15:57-15:57-  1-265.4 589mSRTel: 0494 2422240, Kerala
7.10%==%TATanur (3)  16:05-16:05-  1-257.4 5811mSRMalappuram, Kerala
7.11%==%PGIParappangadi (2)  16:14-16:14-  1-249.3 5819mSRParappanangadi, Kerala
7.12%==%VLIVallikunnu (2)X  16:19-16:19-  1-244.3 5813mSRVallikkunnu, Kerala
7.13%==%KNKadalundi (2)  16:25-16:25-  1-238.9 588mSRKozhikode district, Kerala
7.14%==%FKFerok (2)O  16:30-16:30-  1-234.1 5819mSRFeroke, Kerala
7.15%==%KULKallayi Kozhikode South (2)  16:38-16:38-  1-226.0 580mSRCalicut, Kerala
8%==%CLTKozhikode Main (4)  16:40+1316:45+145m41-224.26311mSRCalicut Tel: 0495 2701234, Kerala
8.1%==%VLLVellayil (2)X  16:47-16:47-  1-222.3 6315mSRCalicut, Kerala
8.2%==%WHWest Hill (2)  16:49-16:49-  1-219.6 6310mSRCalicut, Kerala
8.3%==%ETRElattur (3)X  16:56-16:56-  1-212.4 6313mSRKozhikode district, Kerala
8.4%==%CMCChemancheri (2)  17:03-17:03-  1-205.2 6311mSRDist. Kozhikode, Kerala
8.5%==%QLDKoyilandy (3)  17:08-17:08-  1-199.8 6311mSRQuilandi, Kerala
8.6%==%VEKVellarakkad  17:13-17:13-  1-194.4 6317mSRVellarakkad Railway Station, Kerala
8.7%==%TKTTikkotti (2)  17:17-17:17-  1-190.6 6314mSRThikkodi, Kerala
8.8%==%PYOLPayyoli (2)  17:20-17:20-  1-187.6 6312mSRPayyoli, Kerala
8.9%==%IGLIringal (2)  17:26-17:26-  1-181.7 6324mSRKochi - Panavel Rd, Kerala
8.10%==%BDJVadakara (2)  17:29-17:29-  1-177.9 6311mSRCalicut / Station Ph No : 0496-2524254, Kerala
8.11%==%NAUNadapuram Road  17:34-17:34-  1-172.5 6318mSRMadappallly, Kerala
8.12%==%MUKEMukkaliX  17:38-17:38-  1-168.8 6318mSRChombala, Kerala
8.13%==%MAHEMahe (2)  17:41-17:41-  1-165.0 6316mSRMahe, Puducherry
8.14%==%JGEJagannath Temple Gate (1)  17:48-17:48-  1-158.2 637mSRKannur District, Kerala
8.15%==%TLYThalassery (2)X  17:50-17:50-  1-155.8 639mSRKannur, Kerala
8.16%==%DMDDharmadam (1)  17:55-17:55-  1-151.3 6314mSRKannur District, Kerala
8.17%==%ETKEdakkad (3)X  17:58-17:58-  1-147.5 6312mSRNH 17, Kerala
8.18%==%CSKannur South  18:07-18:07-  1-138.8 638mSRKannur, Kerala
9%==%CANKannur Main (4)  18:10+818:15+125m11-135.18214mSRKannur Tel: 0497 2705555, Kerala
9.1%==%CQLChirakkal (2)  18:19-18:19-  1-130.3 8227mSRKannur district, Kerala
9.2%==%VAPMValapattanam (2)X  18:20-18:20-  1-128.2 828mSRKannur District, Kerala
9.3%==%PPNSPappinisseri (2)X  18:21-18:21-  1-126.7 828mSRKannur District, Kerala
9.4%==%KPQKannapuram (2)  18:26-18:26-  1-120.7 829mSRKannur District, Kerala
9.5%==%PAZPayangadi (2)X  18:31-18:31-  1-113.1 8212mSRKannur District, Kerala
9.6%==%ELMEzhimala  18:38-18:38-  1-104.3 8215mSRKannur District, Kerala
9.7%==%PAYPayyanur (3)X  18:40-18:40-  1-101.5 820mSRKannur District, Kerala
9.8%==%TKQTrikkarippur  18:44-18:44-  1-95.3 8213mSRKasargod district, Kerala
9.9%==%CDRAChandera  18:47-18:47-  1-90.9 8217mSRKasaragod, Kerala
9.10%==%CHVCharvattur (3)  18:50-18:50-  1-86.7 8214mSRKasaragod district, Kerala
9.11%==%NLENileshwar (2)X  18:54-18:54-  1-81.4 8212mSRNileswaram, Kerala
9.12%==%KZEKanhangad (3)  19:01-19:01-  1-72.2 8215mSRKanhangad, Kerala
9.13%==%BFRBekal Fort (2)  19:08-19:08-  1-63.4 8211mSRPallikere, Kerala
9.14%==%KQKKottikkulam (2)  19:11-19:11-  1-58.5 8225mSRBekal, Kerala
9.15%==%KLADKalanad HaltX  19:16-19:16-  1-52.0 823mSRKasaragod, Kerala
10%==%KGQKasaragod (3)  19:18+1719:20+172m--1-49.14218mSRTel: 04994 220800, Kerala
10.1%==%KMQKumbala (2)  19:37-19:37-  1-36.9 4223mSRKumbla, Kerala
10.2%==%UAAUppala (2)  19:51-19:51-  1-27.1 4216mSRKasaragod District, Kerala
10.3%==%MJSManjeshwar (3)  20:01-20:01-  1-20.2 4212mSRManjeshwar, Kerala
10.4%==%ULLUllal (2)  20:16-20:16-  1-9.9 4226mSRSomeshwar, Karnataka
10.5%==%TKOTTokkottu (1)  20:21-20:21-  1-6.4 428mSRTokkottu, Karnataka
11%==%MAJNMangalore Junction (3)»X  20:30+1820:40+2410m110.05324mSRMangalore 575001, Karnataka
11.1|--|TOKThokur (1)X  20:58-20:58-  116.4 539mKRTel. 0824-2408605 Mangalore, Karnataka
11.2|--|SLSurathkal (1)  21:03-21:03-  120.5 5322mKRSurathkal, Karnataka
11.3|--|MULKMulki (1)  21:13-21:13-  129.7 5321mKRMulki, Karnataka
11.4|--|NANDNandikoor (1)X  21:22-21:22-  137.2 537mKRUdupi Dist, Karnataka
11.5|--|PDDPadubidri (1)  21:32-21:32-  146.2 5320mKR, Karnataka
11.6|--|INJInnanje  21:39-21:39-  152.9 5322mKRMoodabettu, Karnataka
12|--|UDUdupi (2)21:50+2421:52+242m--162.45918mKRUdupi, Karnataka
12.1|--|BKJBarkur (1)  22:09-22:09-  178.7 5922mKRUdupi District, Karnataka
12.2|--|KUDAKundapura (2)  22:25-22:25-  194.4 5913mKRKundapura - 576211, Karnataka
12.3|--|SENSenapura (1)  22:39-22:39-  1108.2 5922mKRUdupi District, Karnataka
12.4|--|BIJRBijoor (1)  22:53-22:53-  1121.9 599mKRUdupi Dist, Karnataka
12.5|--|BYNRByndoor Mookambika Road (1)  22:59-22:59-  1128.0 5910mKRUdupi Dist. 576214, Karnataka
12.6|--|SHMIShiroor (1)  23:07-23:07-  1135.9 5924mKRTel. 08254-253192, Karnataka
12.7|--|BTJLBhatkal (2)  23:15-23:15-  1143.1 5916mKRBhatkal - 581320, Karnataka
12.8|--|CTTPChitrapur Halt (1)X  23:21-23:21-  1149.3 5914mKRMavalli, Karnataka
12.9|--|MRDWMurdeshwar (2)  23:30-23:30-  1157.8 5928mKRMurudeshwara - 581350, Karnataka
12.10|--|MANKManki Halt  23:38-23:38-  1166.3 5927mKRTel. 08387-257333, Karnataka
12.11|--|HNAHonnavar (2)  23:57-23:57-  1184.1 594mKRUttara Kannada Dist, Karnataka
12.12|--|KTKumta (2)X  00:11-00:11-  2197.9 5920mKRKumta - 581362, Karnataka
12.13|--|GOKGokarna Road (1)  00:30-00:30-  2216.9 5913mKRUttara Kannada, Karnataka
12.14|--|ANKLAnkola (1)  00:38-00:38-  2224.9 5917mKRAnkola, Karnataka
12.15|--|HAAHarwada (1)X  00:53-00:53-  2239.2 597mKRTel. 08388-248377, Karnataka
12.16|--|KAWRKarwar (2)  01:07-01:07-  2253.0 5914mKRKarwar, Karnataka
12.17|--|ATAsnoti (1)  01:15-01:15-  2260.7 596mKRAsnoti - 581317, Karnataka
12.18|--|LOLLoliem (1)  01:25-01:25-  2270.3 5926mKRCanacona Taluk, Goa
12.19|--|CNOCanacona (1)  01:35-01:35-  2280.1 5929mKRPh:-0832-2643644., Goa
12.20|--|BLLIBalli  01:52-01:52-  2296.7 5940mKRBalli - 403703, Goa
13|--|MAOMadgaon Junction (3)  02:10+1:0702:20+1:0510m12314.34611mKRMadgaon 403601, Goa
13.1|--|SRVXSuravali (1)  02:25-02:25-  2317.8 4617mKRMargao, Goa
13.2|--|MJOMajordaX  02:28-02:28-  2320.7 4618mKRSouth Goa 403713, Goa
13.3|--|VENVerna (1)  02:35-02:35-  2325.6 469mKRDist. South Goa 403722, Goa
13.4|--|KRMIKarmali (2)X  02:56-02:56-  2341.8 467mKRNorth Goa 403402, Goa
13.5|--|THVMThivim (2)  03:19-03:19-  2359.2 4621mKRThivim - 403502, Goa
13.6|--|PERNPernem (2)  03:33-03:33-  2370.1 4617mKRPernem - 403512, Goa
13.7|--|MADRMadure (1)  03:47-03:47-  2380.7 4629mKRMadure - 416514, Maharashtra
13.8|--|SWVSawantwadi Road (2)  03:58-03:58-  2388.6 4640mKRDist. Sindhudurg, Maharashtra
13.9|--|ZARPZarap (2)  04:11-04:11-  2399.2 4639mKRZarap - 416510, Maharashtra
13.10|--|KUDLKudal (2)  04:25-04:25-  2409.4 4626mKRKudal - 416520, Maharashtra
13.11|--|SNDDSindhudurg (2)  04:39-04:39-  2420.1 4635mKRSindhudurg - 416534, Maharashtra
13.12|--|KKWKankavali (2)  05:02-05:02-  2437.7 4645mKRKankavli - 416602, Maharashtra
13.13|--|NANNandgaon Road (1)X  05:22-05:22-  2453.2 46114mKRNandagaon - 416601, Maharashtra
13.14|--|VBWVaibhavwadi Road (1)X  05:43-05:43-  2468.8 4680mKRVaibhavwadi - 416810, Maharashtra
13.15|--|RAJPRajapur Road (1)  06:05-06:05-  2485.4 4641mKRRajapur - 416702, Maharashtra
13.16|--|VIDVilavade (1)  06:27-06:27-  2502.1 4660mKRVilavade - 415643, Maharashtra
13.17|--|ADVIAdavali (1)X  06:47-06:47-  2517.7 4672mKRAdavali - 416712, Maharashtra
13.18|--|NIVNivasar  07:08-07:08-  2533.8 4641mKRNivsar - 415803, Maharashtra
13.19|--|RNRatnagiri (3)X  07:28-07:28-  2549.1 46129mKRRatnagiri 415612, Maharashtra
13.20|--|BOKEBhoke (1)  07:37-07:37-  2555.8 46125mKRBhoke - 415639, Maharashtra
13.21|--|UKCUkshi (1)X  07:54-07:54-  2568.3 4671mKRUkshi - 415637, Maharashtra
13.22|--|SGRSangameshwar Road (2)  08:12-08:12-  2581.9 4637mKRSangameshwar - 415611, Maharashtra
13.23|--|AVRDAravali Road (1)  08:38-08:38-  2602.3 46102mKRAravali - 415608, Maharashtra
13.24|--|SVXSavarda (1)  08:43-08:43-  2606.0 46103mKRSavarda - 415606, Maharashtra
13.25|--|KMAHKamathe (1)X  08:55-08:55-  2614.8 4655mKRKamathe - 415605, Maharashtra
13.26|--|CHIChiplun (2)  09:07-09:07-  2624.5 4612mKRChiplun, Maharashtra
13.27|--|ANOAnjani (1)X  09:29-09:29-  2640.7 4624mKRAnjani, Maharashtra
13.28|--|KHEDKhed (2)X  09:46-09:46-  2654.1 4627mKRKhed, Maharashtra
13.29|--|DWVDiwan Khavati (1)X  10:09-10:09-  2671.8 4699mKRDiwan Khavati - 415640, Maharashtra
13.30|--|VINHVinhere (1)  10:23-10:23-  2681.7 4688mKRRaigad, Maharashtra
13.31|--|KFDKaranjadi (2)  10:33-10:33-  2689.7 4655mKRKaranjadi - 402301, Maharashtra
13.32|--|SAPESape Wamne (1)X  10:44-10:44-  2698.0 4616mKRSH 70, Maharashtra
13.33|--|VEERVeer (1)  10:54-10:54-  2705.5 466mKRVeer, Maharashtra
13.34|--|GNOGoregaon Road Halt (1)  11:02-11:02-  2711.8 4613mKRRaigad, Maharashtra
13.35|--|MNIMangaon (2)X  11:16-11:16-  2722.1 4612mKRMangaon - 402104, Maharashtra
13.36|--|INPIndapur (1)  11:24-11:24-  2728.6 4620mKRIndapur, Maharashtra
13.37|--|KOLKolad (1)  11:38-11:38-  2739.5 4617mKRKolad, Maharashtra
13.38!==!ROHARoha (3)  11:56-11:56-  2752.5 4611mCRRoha, Maharashtra
13.39!==!NIDINidiX  12:01-12:01-  2756.6 4612mCRRoha, Maharashtra
13.40!==!NGTNNagothane (3)  12:13-12:13-  2765.6 4621mCRRaigad, Maharashtra
13.41!==!KASUKasu (1)  12:30-12:30-  2778.9 467mCRKasu, Maharashtra
13.42!==|PENPenX  12:49-12:49-  2793.0 4613mCRPen, Maharashtra
13.43|==|HMRRHamarapur (1)  13:02-13:02-  2803.2 466mCRRaigad, Maharashtra
13.44|==|JITEJite (1)  13:09-13:09-  2808.2 4618mCRJite, Maharashtra
13.45|==|APTAApta (2)X  13:15-13:15-  2813.0 469mCRRaigad, Maharashtra
13.46|==|RSYIRasayani (2)X  13:19-13:19-  2816.4 4622mCRRasayani, Maharashtra
13.47|==|SMNESomatne (2)  13:28-13:28-  2823.0 4612mCRKolkhe Village, Maharashtra
14|==|PNVLPanvel Junction (7)  13:35+5213:40+595m72828.23110mCRPanvel, Maharashtra
14.1/==/KLMCKalamboli (3)  13:50-13:50-  2833.3 314mCR, Maharashtra
14.2/==/KLMGKalamboli Goods (2)  13:51-13:51-  2833.9 314mCRNavi Mumbai, Maharashtra
14.3/==/NVRDNavade Road (2)  13:54-13:54-  2835.7 316mCRGhotkamp Koyana vele., Maharashtra
14.4/==/TPNDTaloje Panchnand (3)  14:01-14:01-  2839.1 3110mCRNavi Mumbai, Maharashtra
14.5/==/NIIJNilaje (3)  14:17-14:17-  2847.7 319mCRNilaje, Maharashtra
14.6/==/DTVLDativli (2)  14:26-14:26-  2851.9 317mCRKalyan Shilphata Rd, Maharashtra
14.7/==/KOPRKopar (4)  14:37-14:37-  2858.1 310mCRKopar, Maharashtra
14.8/==/BIRDBhiwandi Road (4)  14:53-14:53-  2866.0 3126mCRBhiwandi, Maharashtra
14.9/==/KHBVKharbav (4)  15:08-15:08-  2874.2 318mCRThane, Maharashtra
14.10/==/KARDKaman Road  15:24-15:24-  2882.4 3119mCRSection 2, Maharashtra
14.11/==/JCNRJuchandra  15:35-15:35-  2888.0 314mCRNH 8, Maharashtra
15/==/BSRVasai Road (7)  15:50 15:45+3715:55 15:50+385m62893.3547mWRVasai 401202, Maharashtra
15.1/==/NSPNallasopara (4)  15:55-15:55-  2897.5 545mWRNallasopara station Rd, Maharashtra
15.2/==/VRVirar (8)  15:59-15:59-  2901.7 546mWRDist. Palghar, Maharashtra
15.3/==/VTNVaitarna (2)X  16:09-16:09-  2910.2 543mWRDist. Palghar, Maharashtra
15.4/==/SAHSaphale (2)  16:17-16:17-  2918.0 548mWRDist. Palghar, Maharashtra
15.5/==/KLVKelve Road (3)X  16:24-16:24-  2924.4 5410mWRDist. Palghar, Maharashtra
15.6/==/PLGPalghar (3)X  16:34-16:34-  2932.8 5419mWRPalghar, Maharashtra
15.7/==/UOIUmroli (2)  16:41-16:41-  2939.2 548mWRBoisar, Maharashtra
15.8/==/BORBoisar (3)O  16:46-16:46-  2944.1 5417mWRBoisar Tel.no-02525-266626, Maharashtra
15.9/==/VGNVangaon (3)X  16:56-16:56-  2953.5 5411mWRDist. Palghar, Maharashtra
15.10/==/DRDDahanu Road (5)  17:10-17:10-  2965.8 5412mWRDahanu, Maharashtra
15.11/==/GVDGholvad (4)  17:22-17:22-  2977.0 5414mWRGholvad, Maharashtra
15.12/==/BRRDBordi Road (2)  17:28-17:28-  2981.9 5417mWRBordi, Maharashtra
15.13/==/UBRUmbargam Road (3)X  17:32-17:32-  2986.1 5430mWRUmbergaon, Gujarat
15.14/==/SJNSanjan (3)X  17:38-17:38-  2991.5 5422mWRSanjan, Gujarat
15.15/==/BLDBhilad (3)  17:51-17:51-  21003.1 5433mWRBhilad, Gujarat
15.16/==/KEBKarambeli (2)  17:56-17:56-  21007.9 5429mWRNational Highway 8, Gujarat
15.17/==/VAPIVapi (3)  18:03-18:03-  21014.3 5427mWRVapi, Gujarat
15.18/==/BAGDBagwada (2)  18:11-18:11-  21021.1 5422mWRNH8, Gujarat
15.19/==/UVDUdvada (3)  18:14-18:14-  21023.9 5418mWRUdvada, Gujarat
15.20/==/PADPardi (3)X  18:21-18:21-  21029.9 5419mWRValsad, Gujarat
15.21/==/ATULAtul (3)  18:25-18:25-  21033.9 5422mWRValsad, Gujarat
15.22/==/BLValsad (3)X  18:32-18:32-  21040.6 5415mWRValsad, Gujarat
15.23/==/DGIDungri (3)X  18:42-18:42-  21049.5 5420mWRNH 8, Gujarat
15.24/==/JRSJoravasan (2)  18:48-18:48-  21054.6 5415mWRJoravasan, Gujarat
15.25/==/BIMBilimora Junction (4)  18:52-18:52-  21058.5 5411mWRBilimora, Gujarat
15.26/==/AMLAmalsad (3)  18:58-18:58-  21064.1 5412mWRAmalsad, Gujarat
15.27/==/ACLAncheli (2)  19:02-19:02-  21067.9 5420mWRNavsari, Gujarat
15.28/==/VDHVedchha (3)XO  19:06-19:06-  21071.3 5413mWRNavsari, Gujarat
15.29/==/HXRHansapore (2)  19:10-19:10-  21075.1 5415mWRHansapore, Gujarat
15.30/==/GNSTGandhi Smriti (2)  19:12-19:12-  21076.7 5416mWRGandhi Smriti Navsari, Gujarat
15.31/==/NVSNavsari (3)XO  19:15-19:15-  21079.7 5414mWRNavsari, Gujarat
15.32/==/MRLMaroli (3)X  19:25-19:25-  21088.1 5415mWRMaroli, Gujarat
15.33/==/SCHSachin (3)  19:32-19:32-  21094.8 5411mWRKansad Road Sachin, Gujarat
15.34/==/BHETBhestan (2)  19:38-19:38-  21100.5 5413mWRSurat, Gujarat
15.35/==/UDNUdhna Junction (3)  19:44-19:44-  21105.3 5416mWRUdhna 394210, Gujarat
16/==/STSurat (4)X  19:48+1119:53+115m321109.36519mWRSurat 395001, Gujarat
16.1/==/URNUtran (3)  19:57-19:57-  21113.2 6515mWRSurat, Gujarat
16.2/==/KSEKosad (2)X  19:59-19:59-  21116.4 6517mWRSurat, Gujarat
16.3/==/GTXGothangam (2)X  20:03-20:03-  21120.0 6519mWRAmroli Sayan Rd, Gujarat
16.4/==/SYNSayan (3)  20:06-20:06-  21123.0 6521mWRSayan Satellite town, Gujarat
16.5/==/KDSDKudsad (2)  20:12-20:12-  21130.1 6518mWRNH 8, Gujarat
16.6/==/KIMKim (2)  20:15-20:15-  21132.9 6518mWRNH 8, Gujarat
16.7/==/KSBKosamba Junction (3)  20:22-20:22-  21140.7 6530mWRKosamba, Gujarat
16.8/==/HATHathuran (2)  20:26-20:26-  21145.1 6532mWRKosamba, Gujarat
16.9/==/PAOPanoli (3)  20:29-20:29-  21148.9 6529mWRPanoli, Gujarat
16.10/==/SNJLSanjali (2)  20:33-20:33-  21153.2 6523mWRSanjali, Gujarat
16.11/==/AKVAnkleshwar Junction (4)O  20:39-20:39-  21159.2 6519mWRAnkleshwar, Gujarat
16.12/==/BHBharuch Junction (5)X  20:47-20:47-  21168.6 6519mWRBharuch, Gujarat
16.13/==/CVJChavaj (2)X  20:52-20:52-  21173.6 6520mWRBharuch, Gujarat
16.14/==/NIUNabipur (3)  20:58-20:58-  21180.6 6524mWRNabipur, Gujarat
16.15/==/VREVarediya (4)X  21:05-21:05-  21187.4 6521mWRNH 8, Gujarat
16.16/==/PLJPalej (4)  21:11-21:11-  21194.0 6529mWRPalej, Gujarat
16.17/==/LKDLakodara (4)  21:17-21:17-  21201.2 6526mWRNH 8, Gujarat
16.18/==/MYGLMiyagam Karjan Junction NGX  21:25-21:25-  21209.2 650mWRKarjan, Gujarat
16.19/==/MYGMiyagam Karjan (2)X  21:25-21:25-  21209.3 6529mWRKarjan, Gujarat
16.20/==/KSPRKashipura Sarar (2)  21:32-21:32-  21217.0 6526mWRGIDC Industrial Area, Gujarat
16.21/==/ITAItola (4)  21:35-21:35-  21220.8 6527mWRNational Highway 8 Vadodara, Gujarat
16.22/==/VRMVarnama (2)  21:39-21:39-  21224.8 6528mWRVadodara, Gujarat
16.23/==/MPRMakarpura (4)  21:44-21:44-  21230.4 6530mWRVadodara, Gujarat
16.24/==/VSVishvamitri (4)X  21:49-21:49-  21236.1 6530mWRVadodara, Gujarat
17/==/BRCVadodara Junction (7)X  21:52+3322:10+3018m221239.16736mWRVadodara 390005, Gujarat
17.1/==/BRGYVadodara D Cabin  22:11-22:11-  21239.7 6736mWRVadodara, Gujarat
17.2/==/BRGZVadodara E Cabin  22:16-22:16-  21245.7 6739mWRVadodara, Gujarat
17.3/==/CYIChhayapuri (2)  22:17-22:17-  21246.8 6741mWRNE 1, Gujarat
17.4/==/PIOPilol (2)  22:23-22:23-  21253.4 6744mWRManjusar, Gujarat
17.5/==/AIRAlindra Road (2)  22:29-22:29-  21260.0 6745mWRAlindra, Gujarat
17.6/==/SMLASamlaya Junction (3)  22:34-22:34-  21265.7 6767mWRVadodara, Gujarat
17.7/==/LANLotanaX  22:38-22:38-  21271.0 6778mWRSH 150, Gujarat
17.8/==/CPNChampaner Road Junction  22:44-22:44-  21276.9 6778mWRPanchmahal, Gujarat
17.9/==/BKRLBakrol  22:49-22:49-  21282.9 6776mWRState Highway 5, Gujarat
17.10/==/DRLDerolX  22:55-22:55-  21289.4 6781mWRKalol, Gujarat
17.11/==/KRSAKharsaliya (2)  23:06-23:06-  21302.1 67107mWRPanchmahal, Gujarat
17.12/==/GDAGodhra Junction (3)X  23:16-23:16-  21313.0 67122mWRGodhra, Gujarat
17.13/==/KIZKansudhi  23:20-23:20-  21317.5 67138mWRGodhra, Gujarat
17.14/==/CCLChanchelav  23:26-23:26-  21324.4 67168mWRNH 59, Gujarat
17.15/==/SATSant Road (2)X  23:34-23:34-  21333.3 67169mWROrwara, Gujarat
17.16/==/PPDPiplod JunctionX  23:45-23:45-  21345.2 67209mWRPiplod, Gujarat
17.17/==/LMKLimkheda  23:52-23:52-  21353.1 67205mWRLimkheda, Gujarat
17.18/==/MAMMangal Mahudi (2)  23:59-23:59-  21361.8 67248mWRDabhada, Gujarat
17.19/==/USRAUsra (2)X  00:05-00:05-  31368.3 67299mWRMangal Mahudi, Gujarat
17.20/==/JKTJekot  00:12-00:12-  31375.7 67345mWRDahod, Gujarat
17.21/==/RETRentiaX  00:17-00:17-  31381.2 67342mWRDahod, Gujarat
17.22/==/DHDDahod (3)  00:21-00:21-  31386.1 67313mWRDahod, Gujarat
17.23/==/DHMADhamarda  00:25-00:25-  31391.0 67285mWRDahod, Gujarat
17.24/==/BIOBordi (2)  00:31-00:31-  31396.7 67289mWRNational Highway 59, Gujarat
17.25/==/ANASAnas (2)X  00:38-00:38-  31404.6 67288mWRMadhya Pradesh 389154 ?, Madhya Pradesh
17.26/==/NRHNahargarhX  00:45-00:45-  31413.4 67304mWRNahargarh, Madhya Pradesh
17.27/==/MGNMeghnagar (3)  00:51-00:51-  31419.2 67317mWRJhabua, Madhya Pradesh
17.28/==/THDRThandla Road (2)X  00:58-00:58-  31427.2 67317mWRJhabua, Madhya Pradesh
17.29/==/BJGBajrangarh (2)  01:04-01:04-  31434.1 67343mWRJhabua, Madhya Pradesh
17.30/==/PCNPanch Pipila (2)  01:10-01:10-  31441.1 67369mWRSH 39A, Madhya Pradesh
17.31/==/AGRAmargarh (2)  01:19-01:19-  31450.6 67410mWRSH 39A, Madhya Pradesh
17.32/==/BMIBamnia (2)X  01:22-01:22-  31454.7 67392mWRBamnia, Madhya Pradesh
17.33/==/BOGBhairongarh (2)  01:28-01:28-  31460.7 67374mWRBhairongarh Railway Station, Madhya Pradesh
17.34/==/RTIRaoti (2)X  01:38-01:38-  31472.6 67409mWRState Highway 39A, Madhya Pradesh
17.35/==/BILDBildi (2)  01:45-01:45-  31479.7 67422mWRMadhya Pradesh, Madhya Pradesh
17.36/==/MRNMorwani (2)  01:53-01:53-  31488.8 67459mWRDantoda, Madhya Pradesh
17.37/==/DRRNDr. RK NagarX  01:58-01:58-  31494.6 67473mWRDholawad Road, Madhya Pradesh
17.38/==/RTDRatlam A Cabin  02:01-02:01-  31498.3 67490mWRRatlam, Madhya Pradesh
17.39/==/RTMRatlam Junction (7)O  02:02-02:02-  31499.5 67495mWRRatlam 457001, Madhya Pradesh
17.40/==/RTLMRatlam  02:02-02:02-  31499.6 67495mWRRatlam, Madhya Pradesh
17.41/==/RTMERatlam East CabinX  02:05-02:05-  31502.6 67496mWRRatlam, Madhya Pradesh
17.42/==/BODBangrod  02:11-02:11-  31509.3 67484mWRRatlam, Madhya Pradesh
17.43/==/RNHRunkhera  02:18-02:18-  31516.7 67478mWRUjjain, Madhya Pradesh
17.44/==/KUHKhachrod (2)  02:27-02:27-  31527.1 67497mWRUjjain, Madhya Pradesh
17.45/==/BRNABerawanya  02:32-02:32-  31532.8 67496mWRUjjain, Madhya Pradesh
17.46/==/NADNagda Junction (4)X  02:39-02:39-  31540.9 67468mWRNagda, Madhya Pradesh
17.47/==/RLKRohal Khurd  02:49-02:49-  31551.4 67499mWCRNagda, Madhya Pradesh
17.48/==/MEPMahidpur RoadX  02:54-02:54-  31558.0 67493mWCRGogapur, Madhya Pradesh
17.49/==/LNRLuni Richha  03:04-03:04-  31568.6 67471mWCRAlote, Madhya Pradesh
17.50/==/VMAVikramgarh Alot (2)X  03:16-03:16-  31581.9 67443mWCRKota Division, Madhya Pradesh
17.51/==/THURThuria  03:23-03:23-  31589.5 67430mWCRMDR 45, Madhya Pradesh
17.52/==/TLZTalavli (2)  03:31-03:31-  31598.5 67442mWCRMDR 45, Madhya Pradesh
17.53/==/CMUChau Mahla (3)  03:35-03:35-  31603.7 67426mWCRJhalawar, Rajasthan
17.54/==/NKHNathukheri  03:44-03:44-  31613.4 67439mWCRMDR 45, Madhya Pradesh
17.55/==/SVASuwasra (2)  03:49-03:49-  31619.1 67450mWCRSuwasra, Madhya Pradesh
17.56/==/HNUHanspuraO  03:55-03:55-  31625.9 67476mWCRMandsaur, Madhya Pradesh
17.57/==/SGZShamgarh (3)  04:01-04:01-  31632.5 67463mWCRMandsaur, Madhya Pradesh
17.58/==/GOHGaroth (2)  04:11-04:11-  31643.3 67441mWCRMadhya Pradesh 458880, Madhya Pradesh
17.59/==/KRLSKurlas  04:19-04:19-  31653.1 67417mWCRGarot, Madhya Pradesh
17.60/==/BWMBhawani Mandi (3)X  04:31-04:31-  31666.0 67384mWCRBhawani Mandi, Madhya Pradesh
17.61/==/DKRADhuankheri  04:40-04:40-  31676.1 67358mWCRBhawani Mandi, Madhya Pradesh
17.62/==/JHWJhalawar Road (3)X  04:45-04:45-  31682.5 67361mWCRJhalawar City, Rajasthan
17.63/==/RMARamganj Mandi Junction (3)  04:56-04:56-  31694.8 67358mWCRRamganj Mandi, Rajasthan
17.64/==/MKXMorak (2)X  05:05-05:05-  31703.9 67337mWCRMorak, Rajasthan
17.65/==/KIWKanwalpura  05:10-05:10-  31709.8 67324mWCRNH 12, Rajasthan
17.66/==/DARADaraX  05:18-05:18-  31718.6 67354mWCRDara, Rajasthan
17.67/==/RDTRavtha Road  05:29-05:29-  31731.4 67366mWCRNational Highway 12, Rajasthan
17.68/==/DKQDhani Kasar  05:35-05:35-  31737.7 67346mWCRKasar Railway Station, Rajasthan
17.69/==/ALNIAlniya  05:40-05:40-  31743.3 67334mWCRNH 12, Rajasthan
17.70/==/DDVDadhdevi  05:46-05:46-  31750.1 67308mWCRNH 12, Rajasthan
17.71/==/DKNTDakaniya Talav (2)  05:52-05:52-  31756.8 67278mWCRKota, Rajasthan
17.72/==/KTSCKota South Cabin  05:57-05:57-  31763.2 67256mWCRKota, Rajasthan
18/==/KOTAKota Junction (5)X  06:00+1606:10+1810m131766.163256mWCRKota, Rajasthan
18.1/==/KCCNKota C Cabin  06:12-06:12-  31767.9 63246mWCRKota, Rajasthan
18.2/==/GQLGurla  06:15-06:15-  31771.6 63251mWCRSH 33, Rajasthan
18.3/==/GQLWGurla West  06:16-06:16-  31772.6 63249mWCRGurla, Rajasthan
18.4/==/GQLNGurla North  06:17-06:17-  31773.6 63248mWCRKota - Lalsot Mega Highway, Rajasthan
18.5/==/GNCNGurla N Cabin  06:18-06:18-  31774.4 63249mWCRGudla, Rajasthan
18.6/==/KPTNKeshorai Patan  06:23-06:23-  31779.6 63243mWCRSH 33, Rajasthan
18.7/==/AREArnethaX  06:33-06:33-  31790.6 63239mWCRShreepura, Rajasthan
18.8/==/KPZKaprenX  06:42-06:42-  31799.7 63234mWCRKota - Lalsot Mega Highway, Rajasthan
18.9/==/GKBGhataka Varana  06:52-06:52-  31809.8 63232mWCRSH 33, Rajasthan
18.10/==/LBNLaban (2)  07:01-07:01-  31819.1 63225mWCRBundi, Rajasthan
18.11/==/LKELakheri (3)  07:08-07:08-  31826.7 63228mWCRBundi, Rajasthan
18.12/==/IDGIndargarh Sumerganj Mandi (2)  07:19-07:19-  31837.7 63247mWCRIndargarh, Rajasthan
18.13/==/AMLIAmli  07:31-07:31-  31850.8 63233mWCRSawai Madhopur, Rajasthan
18.14/==/RWJRawania Dungar  07:39-07:39-  31858.4 63266mWCRSawai Madhopur, Rajasthan
18.15/==/KTAKushtala  07:47-07:47-  31866.8 63283mWCRNH 116, Rajasthan
18.16/==/SWMSawai Madhopur Junction (4)  07:54-07:54-  31873.9 63266mWCRSawai Madhopur, Rajasthan
18.17/==/SMDCSwai Madhopur d Cabin  07:57-07:57-  31877.4 63261mWCRSawai Madhopur, Rajasthan
18.18/==/RNTRanthambhore  08:03-08:03-  31884.1 63248mWCRMDR 111, Rajasthan
18.19/==/MXLMokholi  08:12-08:12-  31893.3 63242mWCRMDR 111, Rajasthan
18.20/==/MLZMalarna  08:22-08:22-  31904.1 63236mWCRSawai Madhopur, Rajasthan
18.21/==/NMDNomodaX  08:29-08:29-  31911.3 63238mWCRMDR 111, Rajasthan
18.22/==/NNWNarayanpur Tatwara (2)  08:39-08:39-  31920.9 63256mWCRSawai Madhopur, Rajasthan
18.23/==/LRULalpur Umri  08:49-08:49-  31931.5 63276mWCRSH 1, Rajasthan
18.24/==/GGCGangapur City (3)X  08:55-08:55-  31937.9 63270mWCRGangapur, Rajasthan
18.25/==/COOChhoti Odai  09:07-09:07-  31950.6 63257mWCRSH 25, Rajasthan
18.26/==/PDZPilioda  09:15-09:15-  31958.5 63247mWCRSH 1, Rajasthan
18.27/==/KNDPKhandipX  09:21-09:21-  31964.6 63245mWCRState Highway 1, Rajasthan
18.28/==/SMBJShri Mahabirji (3)  09:28-09:28-  31971.9 63240mWCRKarauli, Rajasthan
18.29/==/SKDMSikroda Mina  09:33-09:33-  31977.4 63233mWCRSH 22, Rajasthan
18.30/==/HANHindaun City (2)X  09:37-09:37-  31982.1 63230mWCRKarauli, Rajasthan
18.31/==/DNHKDhindora Hukmikhera  09:45-09:45-  31990.5 63223mWCRDhindhora, Rajasthan
18.32/==/FSPFateh Singhpura  09:50-09:50-  31995.3 63223mWCRState Highway 1, Rajasthan
18.33/==/DYDumariya (2)  10:00-10:00-  32006.0 63211mWCRState Highway 1, Rajasthan
18.34/==/BXNBayana Junction (3)  10:09-10:09-  32015.0 63198mWCRBayana, Rajasthan
18.35/==/SABDSalabad  10:17-10:17-  32023.0 63192mWCRBayana, Rajasthan
18.36/==/KEVKela Devi  10:20-10:20-  32026.9 63193mWCRBharatpur, Rajasthan
18.37/==/PNGRPingora  10:29-10:29-  32035.9 63191mWCRSH 1, Rajasthan
18.38/==/JCUJaicholiX  10:34-10:34-  32041.3 63186mWCRSH 1, Rajasthan
18.39/==/SWARSewar  10:40-10:40-  32047.2 63183mWCRBharatpur, Rajasthan
18.40/==/BTEBharatpur Junction (5)  10:49-10:49-  32057.0 63174mWCRBharatpur, Rajasthan
18.41/==/DUMDhaurmui Jaghina  10:57-10:57-  32065.3 63180mWCRState Highway 33, Rajasthan
18.42/==/RKRRanikund Rarah  11:01-11:01-  32069.3 63176mWCRRarah, Rajasthan
18.43/==/JJAJajan Patti  11:05-11:05-  32073.2 63181mWCRState Highway 33, Rajasthan
18.44/==/CRGChuraman Nagri  11:11-11:11-  32080.1 63180mWCRSH 33, Rajasthan
18.45/==/MSRPMurhesi Rampur (2)  11:13-11:13-  32081.6 63182mWCRSH 33, Uttar Pradesh
18.46/==/MTJMathura Junction (10)X  11:21-11:21-  32090.5 63179mNCRMathura, Uttar Pradesh
18.47/==/BTSRBhuteshwar (3)  11:24-11:24-  32093.2 63181mNCRMathura, Uttar Pradesh
18.48/==/VRBDVrindaban Road (3)X  11:31-11:31-  32100.7 63179mNCRVrindaban, Uttar Pradesh
18.49/==/AJHAjhai (2)  11:42-11:42-  32111.6 63 NCRAjhai, Uttar Pradesh
18.50/==/CHJChata (4)X  11:51-11:51-  32121.7 63 NCRChhata, Uttar Pradesh
18.51/==/KSVKosi Kalan (3)  12:01-12:01-  32132.0 63189mNCRKosi Kalan, Uttar Pradesh
18.52/==/HDLHodal (4)  12:13-12:13-  32144.2 63191mNCRFaridabad, Haryana
18.53/==/BNCRBanchari (2)  12:20-12:20-  32151.4 63189mNCRNational Highway 2, Haryana
18.54/==/SHLKSholaka (4)X  12:23-12:23-  32154.6 63 NCRFaridabad, Haryana
18.55/==/RDERundhi (4)O  12:33-12:33-  32165.1 63194mNCRRundhi, Haryana
18.56/==/PWLPalwal (8)X  12:42-12:42-  32174.4 63200mNRPalwal, Haryana
18.57/==/ASTAsaoti (5)  12:53-12:53-  32185.7 63203mNRAsaoti, Haryana
18.58/==/PYLAPiyala Block Hut  12:57-12:57-  32189.8 63200mNRLadholi - Shahpur Kalan - Sunped Road, Haryana
18.59/==/BVHBallabgarh (5)  13:02-13:02-  32195.6 63203mNRFaridabad, Haryana
18.60/==/FDNFaridabad New Town (3)  13:06-13:06-  32199.7 63204mNRFaridabad, Haryana
18.61/==/FDBFaridabad (4)X  13:10-13:10-  32203.7 63206mNRold Faridabad, Haryana
18.62/==/TKDCTughlakabad Cabin  13:15-13:15-  32209.0 63210mNRFaridabad, Haryana
18.63/==/TKDTuglakabad (2)X  13:21-13:21-  32214.8 63213mNRNear Tughlakabad Metro Station, Delhi NCT
18.64/==/TKECTuglakabad East Cabin  13:23-13:23-  32217.7 63214mNROkhla Indl Area II, Delhi NCT
18.65/==/OKAOkhla (4)X  13:26-13:26-  32220.8 63221mNRIshwar Nagar Mathura Road, Delhi NCT
19/==/NZMDelhi Hazrat Nizamuddin (7)XO13:30+414:00+430m--32224.547209mNRNew Delhi 110013, Delhi NCT
19.1/==/PGMDPragati Maidan (2)  14:03-14:03-  32226.6 47208mNRIP Estate, Delhi NCT
19.2/==/ANVRAnand Vihar (2)  14:13-14:13-  32234.7 47213mNRAnand Vihar, Delhi NCT
19.3/==/ANVTDelhi Anand Vihar Terminal (5)X  14:13-14:13-  32234.9 47208mNRGhazipur Road, Delhi NCT
19.4/==/CNJChander Nagar (2)O  14:16-14:16-  32237.0 47206mNRSahibabad Industrial Area Site 4, Uttar Pradesh
19.5/==/DSBPDelhi Shahdara B Panel  14:18-14:18-  32238.3 47206mNRGhaziabad, Uttar Pradesh
19.6/==/SBBSahibabad Junction (5)X  14:21-14:21-  32240.6 47209mNRGhaziabad, Uttar Pradesh
20/==/GZBGhaziabad Junction (6)X  14:30+2314:32+232m--32247.959217mNRGhaziabad, Uttar Pradesh
20.1%==%GZNNew Ghaziabad (2)  14:38-14:38-  32253.8 59213mNRGhaziabad, Uttar Pradesh
20.2%==%GUHGuldhar (2)  14:42-14:42-  32257.6 59224mNRGhaziabad, Uttar Pradesh
20.3%==%DXHDuhai Halt (2)  14:46-14:46-  32261.3 59219mNRGhaziabad, Uttar Pradesh
20.4%==%MUDMuradnagar (2)  14:50-14:50-  32265.5 59220mNRGhaziabad, Uttar Pradesh
20.5%==%MDNRModinagar (2)  15:00-15:00-  32275.6 59221mNRGhaziabad, Uttar Pradesh
20.6%==%MUZMohiuddinpur (2)O  15:08-15:08-  32283.5 59222mNRMeerut, Uttar Pradesh
20.7%==%PRTPPartapur (2)X  15:13-15:13-  32288.6 59223mNRMeerut, Uttar Pradesh
21%==%MTCMeerut City Junction (6)  15:20+3315:22+342m332295.165229mNRMeerut, Uttar Pradesh
21.1%--%MUTMeerut Cantt. (2)  15:26-15:26-  32299.4 65230mNRMeerut, Uttar Pradesh
21.2%--%PQYPabli Khas (1)  15:30-15:30-  32304.1 65229mNRMeerut, Uttar Pradesh
21.3%--%DRLADaurala (1)  15:36-15:36-  32310.6 65232mNRMeerut, Uttar Pradesh
21.4%--%SKFSakhoti Tanda (2)X  15:44-15:44-  32319.4 65237mNRMeerut, Uttar Pradesh
21.5%--%KATKhatauli (2)  15:53-15:53-  32328.5 65239mNRKhatauli, Uttar Pradesh
21.6%--%MSPMansurpur (1)  16:01-16:01-  32337.8 65242mNRMuzaffarnagar, Uttar Pradesh
21.7%--%JDWJarauda Nara (1)  16:09-16:09-  32346.0 65245mNRMuzaffarNagar, Uttar Pradesh
21.8%--%MOZMuzaffarnagar (3)  16:13-16:13-  32350.7 65247mNRMuzaffarNagar, Uttar Pradesh
21.9%--%BMHRBamanheri (2)  16:18-16:18-  32355.7 65249mNRMuzaffarnagar, Uttar Pradesh
21.10%--%RNARohana Kalan (2)  16:24-16:24-  32363.1 65251mNRMuzaffarnagar, Uttar Pradesh
21.11%--%DBDDeoband (2)X  16:35-16:35-  32374.7 65258mNRSaharanpur, Uttar Pradesh
21.12%--%THJTalheri Buzurg (2)  16:44-16:44-  32384.8 65263mNRSH 59, Uttar Pradesh
21.13%--%NGLNangal (2)X  16:51-16:51-  32392.3 65269mNRSaharanpur, Uttar Pradesh
21.14/==/TPZTapri Junction (2)X  17:01-17:01-  32402.4 65274mNRTapri -Saharanpur, Uttar Pradesh
21.15/==/BAEBaliakheri  17:07-17:07-  32409.8 65274mNRSaharanpur, Uttar Pradesh
21.16/==/SNKESunehti Kharkhari (2)  17:12-17:12-  32414.8 65216mNRSunehti Kharkhr, Uttar Pradesh
21.17/==/CDLChodiala  17:17-17:17-  32420.4 65270mNRMDR 163W, Uttar Pradesh
21.18/==/IQBIqbalpurX  17:23-17:23-  32427.0 65267mNRNational Highway 73, Uttar Pradesh
22/==/RKRoorkee (3)X  17:30+4117:32+422m132434.527264mNRRoorkee - 247667, Uttarakhand
22.1/==/DNRADhandhera (2)  17:38-17:38-  32437.3 27267mNRRoorkee - 247667, Uttarakhand
22.2/==/LDRLandaura (2)X  17:49-17:49-  32442.3 27261mNRHaridwar, Uttarakhand
22.3/==/DSNIDausni (2)  18:00-18:00-  32447.2 27244mNRLaksar, Uttarakhand
22.4/==/LRJCLaksar North Cabin  18:06-18:06-  32450.2 27238mNRMain Bazar Road, Uttarakhand
22.5%--%LRJLaksar Junction (4)X  18:11-18:11-  32452.2 27238mNRLaksar, Uttarakhand
22.6%--%LRNCLrj North Cabin  18:18-18:18-  32455.4 27239mNRMuktarabad, Uttarakhand
22.7%--%ATMOAithalX  18:27-18:27-  32459.6 27244mNRBaghwanpur Haridwar Rd, Uttarakhand
22.8%--%PRIPathriX  18:41-18:41-  32465.7 27257mNRHaridwar, Uttarakhand
22.9%--%IKKIkkar  18:51-18:51-  32470.5 27271mNRHaridwar, Uttarakhand
22.10%--%JWPJwalapur  19:01-19:01-  32475.2 27292mNRHaridwar, Uttarakhand
23%--%HWHaridwar Junction (9)  19:10+3319:15+335m232479.218294mNRHaridwar, Uttarakhand
23.1%--%MOTCMotichur (2)X  19:30-19:30-  32483.8 18312mNRHaridwar, Uttarakhand
23.2%--%RWLRaiwala Junction (2)O  19:52-19:52-  32490.4 18361mNRRishikesh, Uttarakhand
23.3%--%QSRKansrao (1)X  20:28-20:28-  32501.4 18415mNRDehradun, Uttarakhand
23.4%--%DWODoiwalaX  21:00-21:00-  32511.1 18484mNRDehradun, Uttarakhand
23.5%--%HRWHarrawala  21:36-21:36-  32522.0 18595mNRDehradun, Uttarakhand
24%--%DDNDehradun (4)•  22:05+21-132530.9-648mNRDehradun, Uttarakhand
Scroll to Top
Scroll to Bottom